Dauntless Aviation
Greetings, Guest! To participate, [sign up for a free account] or [log in]
Airports South America Argentina
SABE
AEP

Aeroparque Jorge Newbery

Buenos Aires, ARGENTINA

Airport Info
Edit

Location

Latitude / Longitude: 34°33'33"S / 58°24'56"W
  34°33.552'S / 58°24.936'W
  -34.5592 / -58.4156

Nearby radio navigation aids

FDO SAN FERNANDO VOR/DME. 132.7° 10.6nm from FDO to field.
OP AEROPARQUE JORGE NEWBERY NDB. 131.1° 4.3nm from OP to field.

Runway Information

Runway 13 /31

Dimensions: 6890 x 131 ft.
Surface: ASP
 
Runway 13
Runway 31
Latitude: -34.553942 -34.563844
Longitude: -58.425247 -58.407506
Elevation: 18 ft. 18 ft.
Runway true heading: 126.3 306.3
 

Instrument Procedures

STARs (Standard Terminal Arrivals)

  STAR Rwy 13/16 PAGON7C SANANTONIO7C ASADA7C VALOS8C
  STAR Rwy 13/16 SURBO7A SARGO7C KOVUK7C TENIL7C BELGRANO7C
  STAR Rwy 31 SURBO2B SARGO7D KOVUK7D TENIL7D BELGRANO7D VALOS7D ASADA7D
  STAR Rwy 31 PAGON7D SANANTONIO7D

IAPs (Instrument Approach Procedures)

  VOR (DME) ILS (DME) Rwy 13 (From VANAR)
  VOR (DME) ILS (DME) Rwy 13
  LI ILS (DME) Rwy 13
  VOR (DME) LO LI Rwy 13 (From VANAR)
  LI LO LI Rwy 13
  LI Rwy 13 (From QUILMES)
  LI Rwy 31

Departure Procedures

  SID Rwy 13/31
  SID Rwy 13/31 Textual Description
  SID Rwy 13/31 LANDA3B BIVAM3B ATOVO3B
  SID 13/31 LANDA3B BIVAM3B ATOVO3B Textual Description
  SID Rwy 13/31 KUKEN7 SUROBO7 DORVO7 LAPLATA7
  SID Rwy 13/31 KUKEN7 SUROBO7 DORVO7 LAPLATA7 Textual Description
  SID S Rwy 13/31
  SID Rwy 13/31 Textual Description
Satellite photo at:
Airport distance calculator
From:
Weather Reports

METAR

SABE

SABE 301800Z 06007KT 360V130 9999 FEW045 23/13 Q1010
SADF
10.6nm W
SADF 301800Z 23004KT 140V270 9999 FEW025 26/11 Q1009
SAEZ
16.2nm S
SAEZ 301800Z 22005KT 160V290 CAVOK 23/11 Q1010
SUCA
30.3nm NE
SUCA 301800Z XXXXXKT 9999 FEW020 22/14 Q1008

TAF

SABE
TAF SABE 301700Z 3018/3118 07005KT CAVOK TX24/3018Z TN14/3110Z BECMG 3107/3109 17010KT CAVOK
SADF
10.6nm W
TAF SADF 301700Z 3018/3118 VRB03KT 9999 FEW030 TX24/3018Z TN15/3109Z BECMG 3021/3023 09010KT CAVOK BECMG 3112/3114 9999 SCT020 SCT100
SAEZ
16.2nm S
TAF SAEZ 3018/3118 18005KT 9999 FEW040 TX25/3118Z TN11/3110Z BECMG 3102/3106 14005KT TEMPO 3108/3111 VRB02KT 4000 BR BECMG 3112/3116 BKN040
SUCA
30.3nm NE
TAF SUCA 301759Z 3018/3118 15007KT 9999 FEW020 SCT200 TX23/3119Z TN09/3109Z PROB30 TEMPO 3106/3118 7000 RADZ SCT010 BKN060 BECMG 3108/3110 09010KT
Safelog

 

Dauntless Aviation

© 2007-2014 Dauntless Aviation, all rights reserved
Information provided via PilotNav comes from a variety of official and unofficial data sources. As errors are possible, do not use PilotNav for primary flight planning purposes. Verify any information that you receive via PilotNav with current and canonical charts and other official documents. The material in this database is subject to database copyrights held by Dauntless Aviation and may not be copied without the express permission of Dauntless Aviation - licenses for use of part of all of this data are available for purchase; enquire via the Dauntless Aviation helpdesk. A number of mechanisms and markers exist in the database to protect against and identify infringement / copyright. Automated queries against this website are stictly prohibited, and all activity is logged and analyzed.